This is the latest recevied weather packets stored in our database for station/object KR8N. If no packets are shown the sender has not sent any weather packets the latest 10 day(s).
| Time | Temp. | Humidity | Pressure | Rain* | Wind** | Luminosity | Snow |
|---|---|---|---|---|---|---|---|
| 1777169566 | 14.44° C | 88% | 1015.2 hPa | 0 mm | - | 0 W/m² | - |
| 1777169262 | 14.44° C | 88% | 1015.3 hPa | 0 mm | - | 0 W/m² | - |
| 1777168957 | 15° C | 87% | 1015.2 hPa | 0 mm | - | 0 W/m² | - |
| 1777168654 | 15° C | 87% | 1015.2 hPa | 0 mm | - | 0 W/m² | - |
| 1777168349 | 15° C | 87% | 1015 hPa | 0 mm | - | 0 W/m² | - |
| 1777168049 | 15° C | 87% | 1015.1 hPa | 0 mm | - | 0 W/m² | - |
| 1777167744 | 14.44° C | 87% | 1015.1 hPa | 0 mm | - | 0 W/m² | - |
| 1777167440 | 15° C | 86% | 1015 hPa | 0 mm | - | 0 W/m² | - |
| 1777167136 | 15° C | 84% | 1014.9 hPa | 0 mm | - | 0 W/m² | - |
| 1777166832 | 15.56° C | 85% | 1014.7 hPa | 0 mm | - | 0 W/m² | - |
| 1777166532 | 15.56° C | 83% | 1015.1 hPa | 0 mm | - | 0 W/m² | - |
| 1777166228 | 15.56° C | 83% | 1014.9 hPa | 0 mm | - | 0 W/m² | - |
| 1777165925 | 15.56° C | 83% | 1015.1 hPa | 0 mm | - | 0 W/m² | - |
| 1777165623 | 15.56° C | 82% | 1015 hPa | 0 mm | - | 0 W/m² | - |
| 1777165320 | 16.11° C | 82% | 1014.7 hPa | 0 mm | - | 0 W/m² | - |
| 1777165020 | 16.11° C | 81% | 1014.5 hPa | 0 mm | - | 0 W/m² | - |
| 1777164720 | 16.11° C | 81% | 1014.5 hPa | 0 mm | - | 0 W/m² | - |
| 1777164418 | 16.11° C | 81% | 1014.7 hPa | 0 mm | - | 0 W/m² | - |
| 1777164113 | 16.11° C | 80% | 1014.7 hPa | 0 mm | - | 0 W/m² | - |
| 1777163813 | 16.11° C | 80% | 1014.4 hPa | 0 mm | - | 0 W/m² | - |
| 1777163508 | 16.11° C | 79% | 1014.5 hPa | 0 mm | - | 0 W/m² | - |
| 1777163204 | 16.67° C | 79% | 1014.3 hPa | 0 mm | - | 0 W/m² | - |
| 1777162900 | 16.67° C | 78% | 1014.3 hPa | 0 mm | - | 0 W/m² | - |
| 1777162595 | 16.67° C | 77% | 1014.3 hPa | 0 mm | - | 1 W/m² | - |
| 1777162289 | 17.22° C | 75% | 1014.4 hPa | 0 mm | - | 3 W/m² | - |
* Rain latest hour (hover to see other rain measurements)
** Current wind speed in m/s (hover to see current wind gust speed)